Simultaneous Nadir Overpasses (SNOs) Predictions

Prediction of SNOs between NPP and TERRA Satellite Orbit:

Table of predicted SNOs for the next 14.0 days since TLE Epoch: 9/20/2014
Index Date (NPP) Time (NPP) Lat,Lon (NPP) SZA (NPP ) Date (TERRA) Time (TERRA) Lat,Lon (TERRA) SZA (TERRA ) Distance(km) Time Diff (sec)
1 09/20/2014 21:09:45 -69.25, 42.08 111.72 09/20/2014 21:10:51 -69.23, 42.08 111.74 2.57 66
2 09/20/2014 22:00:29 69.11,-150.42 68.16 09/20/2014 22:00:18 69.12,-150.41 68.16 1.08 11
3 09/20/2014 22:51:05 -68.73, 17.43 112.22 09/20/2014 22:49:53 -68.73, 16.73 112.22 28.41 72
4 09/23/2014 13:26:40 -69.19, 157.94 110.74 09/23/2014 13:27:18 -69.20, 157.93 110.73 0.77 38
5 09/23/2014 14:17:24 69.05, -34.56 69.14 09/23/2014 14:16:45 69.08, -34.57 69.17 3.32 39
6 09/26/2014 04:53:00 69.58, 105.83 70.69 09/26/2014 04:54:11 69.47, 106.54 70.58 30.50 71
7 09/26/2014 05:43:35 -69.14, -86.21 109.75 09/26/2014 05:43:45 -69.14, -86.25 109.75 1.88 10
8 09/26/2014 06:34:19 69.00, 81.28 70.14 09/26/2014 06:33:12 69.02, 81.24 70.15 2.83 67
9 09/28/2014 21:09:48 69.22,-137.87 71.37 09/28/2014 21:10:40 69.22,-137.90 71.37 1.14 52
10 09/28/2014 22:00:30 -69.14, 29.56 108.70 09/28/2014 22:00:10 -69.12, 29.61 108.73 3.16 20
11 09/28/2014 22:50:58 68.15,-161.82 70.35 09/28/2014 22:49:51 68.21,-163.87 70.37 85.11 67
12 10/01/2014 12:36:17 -70.25, 169.06 106.58 10/01/2014 12:37:23 -70.17, 171.65 106.63 98.03 66
13 10/01/2014 13:26:43 69.18, -22.04
